Location: Unspecified
(58.9933°N, 5.6375°E)
Time: 09:02:11
(UTC+02:00)

Cosmos 1674 - Visible Passes

Search period start: 30 July 2014 00:00
Search period end: 09 August 2014 00:00
Orbit: 515 x 544 km, 82.5° (Epoch: 29 July)

Date Brightness Start Highest point End Pass type
(mag) Time Alt. Az. Time Alt. Az. Time Alt. Az.
30 Jul 5.2 03:36:00 10° N 03:39:13 24° ENE 03:42:24 10° ESE visible
31 Jul 5.2 03:25:21 10° N 03:28:30 23° ENE 03:31:37 10° ESE visible
01 Aug 5.3 03:14:42 10° N 03:17:47 22° ENE 03:20:50 10° ESE visible
02 Aug 5.3 03:04:03 10° N 03:07:03 21° ENE 03:10:02 10° ESE visible
03 Aug 5.3 02:53:24 10° N 02:56:20 20° ENE 02:59:13 10° ESE visible
03 Aug 2.7 04:28:55 10° NNW 04:32:48 69° W 04:36:37 10° S visible
04 Aug 5.3 02:42:45 10° N 02:45:36 19° ENE 02:48:24 10° ESE visible
04 Aug 2.7 04:18:13 10° NNW 04:22:06 74° W 04:25:55 10° S visible
05 Aug 5.4 02:32:06 10° NNE 02:34:51 18° ENE 02:37:35 10° ESE visible
05 Aug 2.7 04:07:30 10° NNW 04:11:24 78° W 04:15:14 10° S visible
06 Aug 5.4 02:21:27 10° NNE 02:24:07 17° ENE 02:26:44 10° E visible
06 Aug 2.7 03:56:48 10° NNW 04:00:41 83° WSW 04:04:31 10° S visible
07 Aug 5.4 02:10:48 10° NNE 02:13:22 17° NE 02:15:54 10° E visible
07 Aug 2.7 03:46:05 10° NNW 03:49:58 88° WSW 03:53:49 10° S visible
08 Aug 5.4 02:00:09 10° NNE 02:02:36 16° NE 02:05:02 10° E visible
08 Aug 2.7 03:35:22 10° NNW 03:39:15 88° ENE 03:43:05 10° SSE visible
